Miscellaneous Local Product
Issued by NWS North Platte, NE

Home | Current Version | Previous Version | Text Only | Print | Product List | Glossary On
Versions: 1 2 3 4 5 6 7 8 9 10 11 12 13 14 15 16 17 18 19 20 21 22 23 24 25 26 27 28 29 30 31 32 33 34 35 36 37 38 39 40 41 42 43 44 45 46 47 48 49 50
000
AXUS43 KLBF 200110
MISLBF


WESTERN AND NORTH CENTRAL NEBRASKA HOURLY WEATHER ROUNDUP
NATIONAL WEATHER SERVICE NORTH PLATTE NE
800 PM CDT SAT AUG 19 2017

NOTE: "FAIR" INDICATES FEW OR NO CLOUDS BELOW 12,000 FEET WITH NO
SIGNIFICANT WEATHER AND/OR OBSTRUCTIONS TO VISIBILITY.

NOTE: STATIONS NOT REPORTING VARIABLES SUCH AS SKY/WEATHER OR
PRESSURE ARE PROVIDED BY RAWS AND APRS NETWORKS AND ARE NOT UNDER
NATIONAL WEATHER SERVICE QUALITY CONTROL.

...OBSERVATIONS IN AND NEAR THE EASTERN PANHANDLE OF NEBRASKA...

CITY           SKY/WX    TMP DP  RH WIND       PRES   REMARKS
PINE RIDGE     CLEAR     86  54  33 E6        29.84F
GORDON         FAIR      85  55  35 CALM      29.87S
CHADRON        CLEAR     92  42  17 CALM      29.83S
ALLIANCE       CLEAR     87  51  28 CALM      29.89S
SIDNEY         CLEAR     87  50  27 E8        29.95R
CRESCENT LAKE    N/A     87  52  29 CALM        N/A
$$

...OBSERVATIONS IN NORTHERN NEBRASKA AND FAR SOUTHERN SOUTH DAKOTA...

CITY           SKY/WX    TMP DP  RH WIND       PRES   REMARKS
WINNER         FAIR      84  71  65 E12       29.76S
VALENTINE      CLEAR     90  51  26 N6        29.78S
THEDFORD       CLEAR     90  62  39 SW8       29.80F HX  91
AINSWORTH      CLOUDY    89  64  43 CALM      29.78S HX  90
O`NEILL        CLOUDY    79  70  74 SE10      29.81R
ORD            CLOUDY    79  68  69 E7        29.81F
BROKEN BOW     CLOUDY    87  67  51 SE13      29.81F HX  90
VALENTINE NWR    N/A     90  62  39 NW3         N/A  HX  90
HALSEY           N/A     94  63  35 SW6G16      N/A  HX  95
BUTTE            N/A     79  71  75 SE12        N/A
CHAMBERS         N/A     79  68  69 SW12        N/A
EWING            N/A     77  71  81 SE3G12      N/A
$$

...OBSERVATIONS IN SOUTHWEST NEBRASKA AND FAR NORTHEAST COLORADO...

CITY           SKY/WX    TMP DP  RH WIND       PRES   REMARKS
HOLYOKE        FAIR      86  64  48 N7        29.89R
IMPERIAL       CLOUDY    89  60  37 S6        29.85S
OGALLALA       CLEAR     83  65  54 N6        29.85S
NORTH PLATTE   CLOUDY    88  70  55 CALM      29.80F HX  93
MCCOOK         CLOUDY    88  63  43 S12       29.81F
LEXINGTON      CLOUDY    84  66  55 SE8       29.81S
STAPLETON        N/A     88  71  57 CALM        N/A  HX  94
GOTHENBURG       N/A     88  60  38 S3          N/A
CALLAWAY         N/A     83  68  60 S9          N/A
$$

...OBSERVATIONS IN CENTRAL LINCOLN COUNTY AREA...

CITY           SKY/WX    TMP DP  RH WIND       PRES   REMARKS
N.P. AIRPORT   CLOUDY    88  70  55 CALM      29.80F HX  93
N.P. DOWNTOWN    N/A     88  69  52 CALM        N/A  HX  92
N.P. SOUTHEAST   N/A     90  69  50 CALM        N/A  HX  94
N.P. HILLCREST   N/A     87  69  55 SE3         N/A  HX  91
$$

...SOME OBSERVATIONS FROM AROUND THE REGION...

CITY           SKY/WX    TMP DP  RH WIND       PRES   REMARKS
DENVER         CLOUDY    84  34  16 W25G37    30.03R
LIMON            N/A     79  49  34 S6        30.02S
ASPEN          CLOUDY    72  34  24 N7        30.25F
LARAMIE        CLEAR     77  22  13 NW13      30.16F
CASPER         SUNNY     87  18   8 W5        29.97F
CHEYENNE       CLEAR     84  23  10 NW9       30.07S
SCOTTSBLUFF    CLEAR     92  43  18 CALM      29.89S
GRAND ISLAND   CLOUDY    82  73  74 SE13      29.82S
OMAHA          PTCLDY    82  61  48 SE10      29.86F
SIOUX FALLS    PTCLDY    77  66  68 S12       29.84S
PIERRE         CLEAR     83  64  52 SE9       29.73S
RAPID CITY     CLEAR     83  41  22 N14       29.86R
BISMARCK       PTCLDY    84  67  56 SW5       29.74S
KANSAS CITY    CLEAR     82  71  69 SE10      29.90S
HILL CITY      CLOUDY    91  59  33 S7        29.84R HX  90
WICHITA        CLOUDY    82  67  60 S7        29.88S
DODGE CITY     CLOUDY    88  60  38 S8        29.91R
OKLAHOMA CITY  PTCLDY    87  71  58 S6        29.91R HX  93
DALLAS         MOCLDY    92  70  48 SE8       29.88S HX  97
AMARILLO       PTCLDY    82  62  50 S8        30.03R
$$




USA.gov is the U.S. government's official web portal to all federal, state and local government web resources and services.